Change the Weather History Date:

Tuesday, November 6, 2012

  Actual Average Record
Temperature  
Mean Temperature 48 °F -  
Max Temperature 51 °F - - ()
Min Temperature 44 °F - - ()
Degree Days  
Heating Degree Days 18    
Moisture  
Dew Point 45 °F    
Average Humidity 89    
Maximum Humidity 99    
Minimum Humidity 76    
Precipitation  
Precipitation 0.35 in - - ()
Sea Level Pressure  
Sea Level Pressure 30.02 in    
Wind  
Wind Speed 4 mph ()    
Max Wind Speed 9 mph    
Max Gust Speed 18 mph    
T = Trace of Precipitation, MM = Missing Value Source: Averaged Metar Reports

Daily Weather History Graph

Daily Weather History Graph

Search for Another Location

Airport or City:

Trip Planner

Search our weather history database for the weather conditions in past years. The results will help you decide how hot, cold, wet, or windy it might be!

Date:

Astronomy

Nov. 06, 2012 Rise Set
Actual Time 7:03 AM PST 4:36 PM PST
Civil Twilight 6:29 AM PST 5:10 PM PST
Nautical Twilight 5:51 AM PST 5:48 PM PST
Astronomical Twilight 5:14 AM PST 6:25 PM PST
Moon 11:28 PM PST 12:53 PM PST
Length of Visible Light 10h 40m
Length of Day
9h 32m
Waning Gibbous, 52% of the Moon is Illuminated
Nov 6
Waning Gibbous
Nov 6
Last Quarter
Nov 13
New
Nov 20
First Quarter
Nov 28
Full

Hourly Weather History & Observations

Time (PST) Temp. Dew Point Humidity Pressure Visibility Wind Dir Wind Speed Gust Speed Precip Events Conditions
12:00 AM 48.7 °F 44.8 °F 86% 30.19 in - NE 2.3 mph - N/A   Unknown
1:00 AM 48.2 °F 45.9 °F 92% 30.19 in - NE 2.3 mph - N/A   Unknown
2:00 AM 48.9 °F 43.9 °F 83% 30.17 in - NE 8.1 mph - N/A   Unknown
3:00 AM 48.9 °F 44.1 °F 83% 30.14 in - NNE 6.9 mph - N/A   Unknown
4:00 AM 49 °F 44 °F 76% 30.11 in - NNE 3.5 mph - -  
4:00 AM 49.5 °F 43.7 °F 81% 30.11 in - NNE 3.5 mph - N/A   Unknown
5:00 AM 49.6 °F 44.6 °F 83% 30.09 in - NE 8.1 mph - N/A   Unknown
6:00 AM 49.3 °F 44.8 °F 84% 30.08 in - NNW 2.3 mph - N/A   Unknown
7:00 AM 49.1 °F 45.0 °F 86% 30.07 in - NNE 3.5 mph - N/A   Unknown
8:00 AM 49.6 °F 43.7 °F 80% 30.06 in - ENE 5.8 mph - N/A   Unknown
9:00 AM 50.2 °F 44.4 °F 81% 30.03 in - North 4.6 mph - N/A   Unknown
10:00 AM 50 °F 45 °F 77% 30.01 in - NE 5.8 mph - -  
10:00 AM 50.4 °F 45.0 °F 82% 30.01 in - NE 5.8 mph - N/A   Unknown
11:00 AM 49.8 °F 45.7 °F 86% 30.02 in - North 9.2 mph 18.4 mph N/A   Unknown
12:00 PM 50.7 °F 45.0 °F 81% 29.97 in - NNW 3.5 mph - N/A   Unknown
1:00 PM 48.9 °F 45.7 °F 89% 29.99 in - North 4.6 mph - N/A   Unknown
2:00 PM 47.8 °F 46.6 °F 95% 29.99 in - NW 3.5 mph - 0.17 in   Unknown
3:00 PM 48.6 °F 46.6 °F 93% 29.93 in - NW 4.6 mph - 0.12 in   Unknown
4:00 PM 48 °F 47 °F 93% 29.93 in - WNW 3.5 mph - -  
4:00 PM 48.2 °F 46.6 °F 94% 29.93 in - WNW 3.5 mph - 0.06 in   Unknown
5:00 PM 47.5 °F 46.4 °F 96% 29.90 in - NNW 1.2 mph - N/A   Unknown
6:00 PM 46.8 °F 46.0 °F 97% 29.91 in - NW 1.2 mph - N/A   Unknown
7:00 PM 46.9 °F 46.6 °F 99% 29.92 in - SE 2.3 mph - N/A   Unknown
8:00 PM 46.2 °F 45.7 °F 98% 29.93 in - Calm Calm - N/A   Unknown
9:00 PM 45.1 °F 44.8 °F 99% 29.94 in - WNW 1.2 mph - 0.01 in   Unknown
10:00 PM 44 °F 44 °F 99% 29.95 in - NNW 2.3 mph - -  
10:00 PM 44.2 °F 43.9 °F 99% 29.95 in - NNW 2.3 mph - N/A   Unknown
11:00 PM 44.6 °F 44.4 °F 99% 29.96 in - SSE 1.2 mph - N/A   Unknown